sat.trackr.live / text

‹ back to catalog

HAWK-10B

NORAD 60545 · 2024-149CF

PAYLOAD ACTIVE UNKNOWN

§ Identity

Operator
Country
US
Launch date
2024-08-16
Launch site
AFWTR
Launch vehicle
Mass (kg)
RCS (m²)

External: N2YO · Heavens-Above · Gunter

§ Orbital elements

Epoch: 2026-09-22T17:10:08.714496Z

Period
96.21 min
Inclination
97.6740°
Eccentricity
0.0006465
Mean motion
14.96745003 rev/d
Perigee alt
572.5 km
Apogee alt
581.5 km
Semi-major
6,955.1 km
B*
3.6976e-5
RAAN
339.1808°
Arg perigee
117.9617°
Mean anomaly
242.2260°
Rev number
11,457

§ Raw data

HAWK-10B1 60545U 24149CF  26265.71537864  .00000366  00000+0  36976-4 0  99912 60545  97.6740 339.1808 0006465 117.9617 242.2260 14.96745003114575

JSON: /api/v1/satellites/60545 · /tle

For live sub-satellite position, see the globe view (requires WebGL).

§ Visibility from observer

Set your observer location to see the next 7 days of passes ≥ 10°. The values pass through the URL so the page stays shareable.

No JS? Fill the form by hand. The geolocation button needs JavaScript.